Regional Weather Roundup
Issued by NWS Cleveland, OH

Home | Current Version | Previous Version | Graphics & Text | Print | Product List | Glossary On
Versions: 1 2 3 4 5 6 7 8 9 10 11 12 13 14 15 16 17 18 19 20 21 22 23 24 25 26 27 28 29 30 31 32 33 34 35 36 37 38 39 40 41 42 43 44 45 46 47 48 49 50
000
ASUS41 KCLE 031402
RWRCLE
OHIO REGIONAL WEATHER ROUNDUP
NATIONAL WEATHER SERVICE CLEVELAND, OH
900 AM EST TUE MAR 03 2015

NOTE: "FAIR" INDICATES FEW OR NO CLOUDS BELOW 12,000 FEET WITH NO
SIGNIFICANT WEATHER AND/OR OBSTRUCTIONS TO VISIBILITY.

OHZ001>008-015>018-024>027-034-035-043-044-031500-
   NORTHWEST OHIO

CITY           SKY/WX    TMP DP  RH WIND       PRES   REMARKS
DEFIANCE       CLOUDY    25  18  74 SE8       30.07F WCI  16
FINDLAY        CLOUDY    27  19  72 SE12      30.08F WCI  17
TOLEDO EXPRESS MIX PCPN  22  17  81 E6        30.10F WCI  14
TOLEDO EXEC    MIX PCPN  23  17  78 E5        30.12F WCI  17
LIMA           CLOUDY    28  20  71 SE7       30.07F WCI  21
$$

OHZ009>014-019>023-028>033-038-089-031500-
   NORTHEAST OHIO

CITY           SKY/WX    TMP DP  RH WIND       PRES   REMARKS
CLE-HOPKINS    LGT SNOW  25  15  66 SE7       30.16F WCI  17
CLE-LAKEFRONT  CLOUDY    25  16  68 SE9       30.14F HAZE    WCI  15
CUY CO. ARPT   LGT SNOW  25  21  86 S12       30.14F FOG     WCI  14
LORAIN-ELYRIA  MIX PCPN  25  15  66 S8        30.13R WCI  16
ASHTABULA      CLOUDY    21  10  62 S12       30.18S WCI   9
AKRON-CANTON   CLOUDY    24  13  62 SE9       30.13R WCI  14
WOOSTER        MIX PCPN  23  15  71 SE8       30.11S WCI  14
MANSFIELD      CLOUDY    24  16  71 SE12      30.08F WCI  13
YOUNGSTOWN     FLURRIES  21  11  65 SE10      30.15F WCI  10
$$

OHZ042-051>053-060>062-070>072-077>081-031500-
  SOUTHWEST OHIO

CITY           SKY/WX    TMP DP  RH WIND       PRES   REMARKS
CINC-COVINGTON CLOUDY    32  22  66 S9        30.07R WCI  24
CINC-LUNKEN    CLOUDY    32  21  64 CALM      30.11S
HAMILTON       CLOUDY    32  20  61 CALM      30.10S
DAYTON         CLOUDY    29  19  66 SE9       30.07F WCI  20
WRIGHT-PAT AFB NOT AVBL
DAYTON GENERAL CLOUDY    30  20  66 CALM      30.06F
WILMINGTON     CLOUDY    30  19  63 SE8       30.05F WCI  22
$$

OHZ036-037-039>041-045>050-054>059-063>069-073>076-082>088-031500-
  CENTRAL AND SOUTHEAST OHIO

CITY           SKY/WX    TMP DP  RH WIND       PRES   REMARKS
COLUMBUS       CLOUDY    28  18  66 SE6       30.11F WCI  22
OSU AIRPORT    CLOUDY    29  18  63 SE9       30.08F WCI  20
BOLTON FIELD   CLOUDY    27  19  74 E6        30.09F WCI  20
RICKENBACK AFB NOT AVBL
NEWARK         CLOUDY    29  20  69 CALM      30.11S
MARION         MIX PCPN  27  18  69 SE13      30.07F WCI  16
LANCASTER      CLOUDY    29  19  66 SE6       30.13S WCI  23
ZANESVILLE     CLOUDY    27  18  69 E7        30.11F WCI  19
NEW PHILLY     CLOUDY    27  15  61 CALM      30.17R
$$



USA.gov is the U.S. government's official web portal to all federal, state and local government web resources and services.